GW6799 Weather Reports


time (UTC)temp
C
wind
direction
speed
KPH
gust
KPH
rain 1hr
cm
rain 24hr
cm
rain mn
cm
humidity
%
barometer
mb
20260506045003 13 9 11.3 22.5 0.00 0.00 0.00 79 1010.7
20260506044518 14 9 4.8 17.7 0.00 0.00 0.00 79 1010.6
20260506044008 14 316 4.8 19.3 0.00 0.00 0.00 80 1010.5
20260506043503 14 342 4.8 19.3 0.00 0.00 0.00 80 1010.4
20260506043017 14 26 11.3 19.3 0.00 0.00 0.00 80 1010.6
20260506042504 15 360 4.8 17.7 0.00 0.00 0.00 80 1010.5
20260506042008 15 337 11.3 17.7 0.00 0.00 0.00 80 1010.3
20260506041517 15 11 9.7 17.7 0.00 0.00 0.00 80 1010.4
20260506041003 15 9 8.0 20.9 0.00 0.00 0.00 80 1010.3
20260506040503 15 350 9.7 20.9 0.00 0.00 0.00 80 1010.2
20260506040024 15 352 9.7 20.9 0.00 0.00 0.00 80 1010.2
20260506035504 15 11 6.4 14.5 0.00 0.00 0.00 80 1010.1
20260506035004 16 16 4.8 14.5 0.00 0.00 0.00 80 1010.0
20260506034518 16 350 6.4 14.5 0.00 0.00 0.00 81 1010.2
20260506034007 16 327 6.4 14.5 0.00 0.00 0.00 81 1010.2
20260506033502 16 320 6.4 16.1 0.00 0.00 0.00 81 1010.0
20260506033020 16 333 8.0 16.1 0.00 0.00 0.00 81 1010.0
20260506032507 16 343 9.7 19.3 0.00 0.00 0.00 81 1009.9
20260506032004 16 338 9.7 19.3 0.00 0.00 0.00 80 1009.8
20260506031527 16 360 11.3 17.7 0.00 0.00 0.00 80 1009.6
20260506031006 16 352 4.8 12.9 0.00 0.00 0.00 80 1009.5
20260506030504 16 335 6.4 17.7 0.00 0.00 0.00 80 1009.4
20260506030019 16 333 8.0 17.7 0.00 0.00 0.00 80 1009.5
20260506025508 16 352 11.3 17.7 0.00 0.00 0.00 80 1009.3
20260506025006 16 315 8.0 19.3 0.00 0.00 0.00 80 1009.3
20260506024533 17 352 9.7 20.9 0.00 0.00 0.00 79 1009.1
20260506024007 17 14 11.3 20.9 0.00 0.00 0.00 79 1009.1
20260506023503 17 337 8.0 19.3 0.00 0.00 0.00 79 1008.9
20260506023020 17 5 9.7 19.3 0.00 0.00 0.00 79 1008.6
20260506022506 17 339 9.7 17.7 0.00 0.00 0.00 79 1008.5
20260506022008 18 350 6.4 16.1 0.00 0.00 0.00 79 1008.3
20260506021522 18 15 8.0 17.7 0.00 0.00 0.00 79 1008.5
20260506021004 18 352 9.7 20.9 0.00 0.00 0.00 78 1008.3
20260506020505 18 317 11.3 19.3 0.00 0.00 0.00 78 1008.3
20260506020020 18 334 9.7 17.7 0.00 0.00 0.00 78 1008.1
20260506015511 18 10 6.4 17.7 0.00 0.00 0.00 78 1007.8
20260506015004 19 352 6.4 14.5 0.00 0.00 0.00 78 1007.7
20260506014510 19 5 4.8 14.5 0.00 0.00 0.00 78 1007.7
20260506014004 19 349 4.8 14.5 0.00 0.00 0.00 78 1007.8
20260506013504 19 336 6.4 14.5 0.00 0.00 0.00 77 1007.6
20260506013004 19 360 6.4 17.7 0.00 0.00 0.00 77 1007.5
20260506012509 19 334 8.0 17.7 0.00 0.00 0.00 76 1007.4
20260506012003 20 360 9.7 17.7 0.00 0.00 0.00 76 1007.2
20260506011503 20 327 6.4 22.5 0.00 0.00 0.00 76 1007.4
20260506011008 20 17 14.5 22.5 0.00 0.00 0.00 75 1007.1
20260506010506 20 9 9.7 16.1 0.00 0.00 0.00 75 1007.0
20260506010003 21 16 4.8 14.5 0.00 0.00 0.00 75 1006.7
20260506005507 21 327 4.8 14.5 0.00 0.00 0.00 75 1006.9
20260506005002 21 5 4.8 16.1 0.00 0.00 0.00 75 1006.6
20260506004523 21 15 8.0 17.7 0.00 0.00 0.00 75 1006.5
20260506004006 22 352 6.4 17.7 0.00 0.00 0.00 74 1006.4
20260506003503 22 5 6.4 16.1 0.00 0.00 0.00 74 1006.6
20260506003005 22 352 6.4 16.1 0.00 0.00 0.00 73 1006.6
20260506002509 22 15 3.2 12.9 0.00 0.00 0.00 73 1006.7
20260506002002 22 337 6.4 11.3 0.00 0.00 0.00 72 1006.4
20260506001524 22 330 3.2 17.7 0.00 0.00 0.00 72 1006.4
20260506001007 22 324 9.7 24.1 0.00 0.00 0.00 72 1006.2
20260506000511 22 352 9.7 24.1 0.00 0.00 0.00 71 1006.3
20260506000004 23 332 11.3 25.7 0.00 0.00 0.00 70 1006.5
20260505235507 23 342 16.1 25.7 0.00 0.00 0.00 70 1006.6
20260505235008 23 340 9.7 22.5 0.00 0.00 0.00 70 1006.2
20260505234537 23 322 12.9 22.5 0.00 0.00 0.00 69 1005.8
20260505234008 23 324 9.7 24.1 0.00 0.00 0.00 70 1005.8
20260505233503 23 352 9.7 24.1 0.00 0.00 0.00 69 1005.9
20260505233027 23 341 12.9 27.4 0.00 0.00 0.00 67 1006.0
20260505232511 24 348 16.1 27.4 0.00 0.00 0.00 67 1006.1
20260505232009 25 326 14.5 25.7 0.00 0.00 0.00 65 1005.9
20260505231507 25 302 9.7 24.1 0.00 0.00 0.00 64 1005.7
20260505231007 26 345 12.9 22.5 0.00 0.00 0.00 63 1005.6
20260505230502 26 328 9.7 20.9 0.00 0.00 0.00 62 1005.4
20260505230009 26 24 12.9 24.1 0.00 0.00 0.00 60 1005.2
20260505225513 27 322 11.3 24.1 0.00 0.00 0.00 58 1005.2
20260505225003 27 334 6.4 17.7 0.00 0.00 0.00 57 1005.2
20260505224535 27 292 4.8 12.9 0.00 0.00 0.00 56 1005.1
20260505224006 27 294 4.8 12.9 0.00 0.00 0.00 55 1005.1
20260505223506 28 313 6.4 12.9 0.00 0.00 0.00 53 1005.0
20260505223027 28 333 4.8 11.3 0.00 0.00 0.00 53 1004.9
20260505222508 28 291 4.8 12.9 0.00 0.00 0.00 54 1004.8
20260505222005 29 315 4.8 16.1 0.00 0.00 0.00 54 1004.7
20260505221503 29 293 3.2 17.7 0.00 0.00 0.00 55 1004.7
20260505221007 29 282 8.0 17.7 0.00 0.00 0.00 53 1004.6
20260505220502 29 343 8.0 17.7 0.00 0.00 0.00 55 1004.6
20260505220004 29 312 9.7 20.9 0.00 0.00 0.00 55 1004.7
20260505215506 30 229 9.7 20.9 0.00 0.00 0.00 58 1004.4
20260505215006 30 229 8.0 20.9 0.00 0.00 0.00 57 1004.4
20260505214509 30 230 9.7 20.9 0.00 0.00 0.00 57 1004.6
20260505214007 30 248 12.9 24.1 0.00 0.00 0.00 58 1004.7
20260505213506 30 203 12.9 24.1 0.00 0.00 0.00 58 1004.7
20260505213007 30 215 12.9 27.4 0.00 0.00 0.00 59 1004.6
20260505212506 30 221 16.1 25.7 0.00 0.00 0.00 59 1004.6
20260505212011 30 251 11.3 20.9 0.00 0.00 0.00 58 1004.8
20260505211504 30 213 8.0 27.4 0.00 0.00 0.00 59 1004.9
20260505211007 30 192 12.9 27.4 0.00 0.00 0.00 58 1005.0
20260505210506 30 226 11.3 20.9 0.00 0.00 0.00 59 1005.0
20260505210006 30 236 12.9 20.9 0.00 0.00 0.00 60 1005.2
20260505205506 29 224 9.7 20.9 0.00 0.00 0.00 60 1005.0
20260505205008 28 192 16.1 22.5 0.00 0.00 0.00 59 1005.0
20260505204508 29 228 12.9 24.1 0.00 0.00 0.00 60 1005.1
20260505204007 29 235 14.5 24.1 0.00 0.00 0.00 59 1005.2
20260505203504 29 198 14.5 24.1 0.00 0.00 0.00 58 1005.3
20260505203009 29 225 12.9 27.4 0.00 0.00 0.00 59 1005.4
20260505202507 29 217 16.1 27.4 0.00 0.00 0.00 60 1005.5
20260505202007 28 229 12.9 24.1 0.00 0.00 0.00 62 1005.4
20260505201507 28 205 12.9 25.7 0.00 0.00 0.00 61 1005.5
20260505201007 28 229 12.9 27.4 0.00 0.00 0.00 61 1005.4
20260505200503 28 206 16.1 27.4 0.00 0.00 0.00 61 1005.3
20260505200009 28 219 14.5 24.1 0.00 0.00 0.00 61 1005.4
20260505195506 28 205 14.5 24.1 0.00 0.00 0.00 60 1005.6
20260505195006 29 191 12.9 24.1 0.00 0.00 0.00 60 1005.4
20260505194508 29 240 14.5 24.1 0.00 0.00 0.00 59 1005.5
20260505194007 29 279 12.9 25.7 0.00 0.00 0.00 60 1005.5
20260505193505 28 223 16.1 29.0 0.00 0.00 0.00 59 1005.5
20260505193009 29 219 17.7 33.8 0.00 0.00 0.00 60 1005.4
20260505192508 29 217 17.7 33.8 0.00 0.00 0.00 57 1005.4
20260505192005 28 234 14.5 30.6 0.00 0.00 0.00 60 1005.4
20260505191509 28 214 16.1 24.1 0.00 0.00 0.00 65 1005.4
20260505191006 28 204 14.5 25.7 0.00 0.00 0.00 64 1005.3
20260505190505 28 163 12.9 25.7 0.00 0.00 0.00 63 1005.3
20260505190028 28 211 12.9 25.7 0.00 0.00 0.00 65 1005.4
20260505185508 28 219 9.7 25.7 0.00 0.00 0.00 66 1005.3
20260505185009 27 360 16.1 25.7 0.00 0.00 0.00 66 1005.4
20260505184531 27 238 14.5 25.7 0.00 0.00 0.00 65 1005.5
20260505184008 27 360 16.1 27.4 0.00 0.00 0.00 67 1005.5
20260505183503 27 216 19.3 27.4 0.00 0.00 0.00 67 1005.5
20260505183030 27 214 12.9 22.5 0.00 0.00 0.00 67 1005.5
20260505182507 27 185 14.5 29.0 0.00 0.00 0.00 68 1005.5
20260505182006 27 196 14.5 29.0 0.00 0.00 0.00 69 1005.5
20260505181534 27 221 14.5 29.0 0.00 0.00 0.00 69 1005.6
20260505181008 27 197 16.1 32.2 0.00 0.00 0.00 69 1005.5
20260505180511 27 192 17.7 32.2 0.00 0.00 0.00 68 1005.6
20260505180038 27 360 19.3 29.0 0.00 0.00 0.00 67 1005.5
20260505175506 27 202 17.7 29.0 0.00 0.00 0.00 68 1005.5
20260505175006 27 182 19.3 35.4 0.00 0.00 0.00 68 1005.4
20260505174526 27 213 17.7 35.4 0.00 0.00 0.00 69 1005.5
20260505174010 27 169 17.7 33.8 0.00 0.00 0.00 69 1005.5
20260505173510 26 213 16.1 29.0 0.00 0.00 0.00 70 1005.4
20260505173030 26 179 17.7 32.2 0.00 0.00 0.00 71 1005.4
20260505172506 26 234 19.3 32.2 0.00 0.00 0.00 71 1005.5
20260505172008 26 205 16.1 35.4 0.00 0.00 0.00 72 1005.4
20260505171527 25 217 17.7 35.4 0.00 0.00 0.00 72 1005.4
20260505171007 25 145 19.3 29.0 0.00 0.00 0.00 73 1005.4
20260505170504 25 181 16.1 29.0 0.00 0.00 0.00 74 1005.7
20260505170029 25 222 12.9 29.0 0.00 0.00 0.00 74 1005.7
20260505165505 25 202 14.5 29.0 0.00 0.00 0.00 74 1005.5
20260505165005 25 208 20.9 27.4 0.00 0.00 0.00 74 1005.3
20260505164509 25 360 17.7 25.7 0.00 0.00 0.00 74 1005.1
20260505164007 25 209 12.9 29.0 0.00 0.00 0.00 75 1005.9
20260505163510 25 206 16.1 29.0 0.00 0.00 0.00 74 1005.3
20260505163012 25 194 16.1 27.4 0.00 0.00 0.00 74 1005.5
20260505162503 25 180 16.1 33.8 0.00 0.00 0.00 74 1005.7
20260505162006 25 215 22.5 33.8 0.00 0.00 0.00 74 1006.0
20260505161509 25 207 17.7 30.6 0.00 0.00 0.00 74 1005.3
20260505161003 25 178 19.3 33.8 0.00 0.00 0.00 74 1005.4
20260505160506 25 219 20.9 33.8 0.00 0.00 0.00 73 1005.4
20260505153010 24 196 12.9 35.4 0.00 0.00 0.00 76 1005.1
20260505152503 24 164 24.1 35.4 0.00 0.00 0.00 76 1005.1
20260505152008 24 211 16.1 29.0 0.00 0.00 0.00 76 1005.4
20260505151512 24 219 16.1 25.7 0.00 0.00 0.00 76 1005.5
20260505151004 24 236 12.9 37.0 0.00 0.00 0.00 77 1005.4
20260505150504 23 219 19.3 37.0 0.00 0.00 0.00 77 1005.4
20260505140508 22 182 22.5 37.0 0.00 0.00 0.00 79 1005.2
20260505125008 22 208 9.7 17.7 0.00 0.00 0.00 82 1005.0
20260505124512 21 173 11.3 29.0 0.00 0.00 0.00 83 1004.9
20260505124004 21 158 12.9 29.0 0.00 0.00 0.00 83 1004.7
20260505123508 21 194 12.9 25.7 0.00 0.00 0.00 83 1004.7
20260505123014 21 193 9.7 17.7 0.00 0.00 0.00 83 1004.8
20260505122504 21 217 9.7 17.7 0.00 0.00 0.00 84 1004.9
20260505122009 21 205 9.7 25.7 0.00 0.00 0.00 84 1004.7
20260505121525 21 159 9.7 25.7 0.00 0.00 0.00 84 1004.7
20260505121006 21 174 8.0 19.3 0.00 0.00 0.00 84 1004.7
20260505120506 21 165 11.3 19.3 0.00 0.00 0.00 85 1004.7
20260505120011 21 192 8.0 17.7 0.00 0.00 0.00 84 1004.7
20260505115507 21 193 8.0 14.5 0.00 0.00 0.00 84 1004.7
20260505115007 21 174 6.4 20.9 0.00 0.00 0.00 84 1004.6
20260505114515 21 172 11.3 20.9 0.00 0.00 0.00 84 1004.6
20260505114008 21 360 9.7 20.9 0.00 0.00 0.00 84 1004.6
20260505113506 21 170 11.3 20.9 0.00 0.00 0.00 83 1004.6
20260505113014 21 185 9.7 17.7 0.00 0.00 0.00 83 1004.6
20260505112510 21 171 9.7 19.3 0.00 0.00 0.00 83 1004.5
20260505112007 21 360 12.9 19.3 0.00 0.00 0.00 83 1004.4
20260505111514 21 172 11.3 19.3 0.00 0.00 0.00 83 1004.3
20260505111007 21 216 11.3 24.1 0.00 0.00 0.00 83 1004.4
20260505110508 21 200 12.9 24.1 0.00 0.00 0.00 83 1004.3
20260505102007 21 200 11.3 19.3 0.00 0.00 0.00 83 1004.7
20260505101514 21 178 9.7 20.9 0.00 0.00 0.00 83 1004.6
20260505101010 21 228 11.3 25.7 0.00 0.00 0.00 83 1004.5
20260505100507 21 223 12.9 25.7 0.00 0.00 0.00 84 1004.4
20260505100021 21 173 9.7 20.9 0.00 0.00 0.00 84 1004.5
20260505095508 21 200 14.5 24.1 0.00 0.00 0.00 84 1004.5
20260505095006 21 212 12.9 24.1 0.00 0.00 0.00 84 1004.5
20260505094516 21 158 11.3 20.9 0.00 0.00 0.00 84 1004.4
20260505094008 21 180 12.9 22.5 0.00 0.00 0.00 84 1004.5
20260505093506 21 194 12.9 24.1 0.00 0.00 0.00 84 1004.6
20260505093024 21 169 12.9 24.1 0.00 0.00 0.00 84 1004.7
20260505092508 21 185 12.9 24.1 0.00 0.00 0.00 84 1004.8
20260505092008 21 182 12.9 22.5 0.00 0.00 0.00 84 1004.7
20260505091517 21 213 11.3 24.1 0.00 0.00 0.00 84 1005.0
20260505091006 21 207 16.1 24.1 0.00 0.00 0.00 84 1004.9
20260505090507 21 213 14.5 27.4 0.00 0.00 0.00 84 1004.8
20260505090014 21 219 12.9 27.4 0.00 0.00 0.00 84 1004.9
20260505085508 21 198 14.5 27.4 0.00 0.00 0.00 84 1004.9
20260505085011 21 171 9.7 25.7 0.00 0.00 0.00 83 1004.7
20260505084518 21 215 11.3 25.7 0.00 0.00 0.00 83 1004.8
20260505084008 21 163 12.9 22.5 0.00 0.00 0.00 83 1004.7
20260505083509 21 220 12.9 22.5 0.00 0.00 0.00 83 1004.7
20260505083018 21 196 11.3 20.9 0.00 0.00 0.00 83 1004.7
20260505082509 21 185 12.9 20.9 0.00 0.00 0.00 82 1004.8
20260505082008 21 195 11.3 22.5 0.00 0.00 0.00 82 1004.8
20260505081518 21 184 12.9 22.5 0.00 0.00 0.00 82 1004.9
20260505081008 21 194 11.3 22.5 0.00 0.00 0.00 82 1005.1
20260505080508 21 168 11.3 19.3 0.00 0.00 0.00 81 1005.1
20260505080018 21 159 12.9 22.5 0.00 0.00 0.00 81 1005.1
20260505075506 21 171 12.9 22.5 0.00 0.00 0.00 81 1005.2
20260505075003 21 195 11.3 25.7 0.00 0.00 0.00 81 1005.2
20260505074516 21 155 11.3 25.7 0.00 0.00 0.00 80 1005.3
20260505074004 21 199 12.9 22.5 0.00 0.00 0.00 80 1005.3
20260505073503 21 360 16.1 22.5 0.00 0.00 0.00 80 1005.3
20260505073016 21 187 11.3 22.5 0.00 0.00 0.00 79 1005.4
20260505072503 21 178 14.5 27.4 0.00 0.00 0.00 79 1005.5
20260505072002 21 207 11.3 27.4 0.00 0.00 0.00 79 1005.5
20260505071523 21 173 12.9 27.4 0.00 0.00 0.00 79 1005.6
20260505071002 21 189 12.9 27.4 0.00 0.00 0.00 79 1005.7
20260505070504 21 211 11.3 22.5 0.00 0.00 0.00 78 1005.7
20260505070016 22 151 12.9 22.5 0.00 0.00 0.00 78 1005.7
20260505065504 21 158 12.9 24.1 0.00 0.00 0.00 78 1005.8
20260505065007 22 155 9.7 24.1 0.00 0.00 0.00 78 1005.8
20260505064518 22 171 14.5 25.7 0.00 0.00 0.00 78 1005.9
20260505064003 21 196 12.9 27.4 0.00 0.00 0.00 78 1005.8
20260505063503 22 198 12.9 27.4 0.00 0.00 0.00 77 1005.9
20260505063029 22 175 14.5 30.6 0.00 0.00 0.00 77 1006.0
20260505062504 22 175 14.5 30.6 0.00 0.00 0.00 77 1005.9
20260505062003 21 198 14.5 30.6 0.00 0.00 0.00 77 1005.8
20260505061520 21 163 16.1 29.0 0.00 0.00 0.00 77 1005.8
20260505061004 21 183 16.1 29.0 0.00 0.00 0.00 77 1006.0
20260505060502 21 160 12.9 29.0 0.00 0.00 0.00 77 1005.9
20260505060017 21 198 12.9 24.1 0.00 0.00 0.00 77 1005.8
20260505055506 21 176 12.9 24.1 0.00 0.00 0.00 76 1005.8
20260505055003 21 153 14.5 24.1 0.00 0.00 0.00 76 1005.9
20260505054516 21 154 14.5 24.1 0.00 0.00 0.00 76 1005.9
20260505054004 21 205 12.9 25.7 0.00 0.00 0.00 76 1006.0
20260505053507 22 184 12.9 25.7 0.00 0.00 0.00 76 1006.1
20260505053017 22 164 11.3 24.1 0.00 0.00 0.00 75 1006.0
20260505052504 22 167 12.9 25.7 0.00 0.00 0.00 75 1006.2
20260505052009 22 191 11.3 25.7 0.00 0.00 0.00 75 1006.3
20260505051532 22 162 11.3 22.5 0.00 0.00 0.00 75 1006.4
20260505051006 22 187 12.9 25.7 0.00 0.00 0.00 75 1006.4
20260505050507 22 167 17.7 29.0 0.00 0.00 0.00 75 1006.4